GFSMW_con_lsi_072.txt.gz
Lid_Strength_Index
3 3 2 2 2 2 2 2 2 1 2 2 3 3 3 3 3 3 2 2 1 1 1 1 1 1 2 2 2 2 3 2 2 4 5 4 4 4 4 3 3 3 2
4 3 3 3 3 2 2 2 2 1 2 1 2 2 2 3 3 3 2 2 1 1 1 1 1 1 1 2 2 3 3 2 3 5 5 6 5 4 3 3 3 3 2
5 4 4 3 3 3 2 2 2 1 1 1 1 2 2 3 3 3 3 2 2 1 1 2 2 1 1 1 1 1 2 3 3 2 3 5 6 4 3 3 3 3 3
4 4 4 4 3 3 2 2 2 1 1 1 1 2 3 4 3 4 3 2 1 1 1 1 1 1 1 1 1 0 1 2 3 2 1 2 3 5 6 3 2 2 2
4 4 4 3 3 2 2 2 1 1 1 1 1 2 2 2 3 3 3 2 2 1 1 1 1 1 1 1 1 1 1 1 2 2 2 2 2 2 4 6 4 2 2
4 4 3 3 3 2 2 2 2 2 1 1 1 1 2 2 2 3 3 2 2 1 1 1 0 1 0 0 1 1 1 2 2 2 1 2 3 4 4 5 4 4 3
4 4 4 4 3 3 3 2 2 2 2 1 1 1 1 2 2 3 3 3 3 2 1 1 1 1 1 1 1 1 1 2 2 2 2 1 2 2 2 3 4 4 3
4 4 4 3 3 3 3 2 2 2 2 2 2 1 1 2 1 2 2 2 2 2 1 1 1 1 1 1 1 2 1 1 1 2 1 1 1 1 1 2 4 5 5
4 4 4 3 3 3 3 3 2 2 2 2 1 1 1 1 1 1 1 1 1 1 1 1 1 1 2 2 2 2 2 1 1 1 2 1 1 1 1 2 2 4 6
4 4 4 3 3 3 2 2 2 2 2 2 1 1 1 1 1 1 1 1 1 1 1 1 0 1 1 1 1 1 1 1 1 1 1 1 1 1 1 1 2 2 3
4 4 4 3 3 2 2 2 2 2 2 2 1 1 1 1 1 1 1 1 1 1 1 1 1 1 1 1 1 1 1 1 1 1 1 1 1 1 1 1 1 2 2
4 4 4 3 3 3 3 3 2 2 2 2 2 2 1 1 1 1 1 1 1 1 1 1 1 1 1 1 1 1 1 1 2 1 1 1 1 2 1 1 2 2 1
4 4 4 4 3 3 3 3 2 2 2 1 2 2 2 2 2 1 1 1 1 1 1 1 1 1 1 1 1 1 1 1 1 1 1 2 2 2 2 2 2 2 2
4 3 4 4 3 3 3 3 2 2 2 2 2 2 2 2 1 1 1 1 1 1 1 1 1 1 1 1 1 1 1 1 1 1 1 1 1 2 2 2 2 2 3
4 4 4 3 3 3 3 2 2 2 2 2 2 2 2 1 1 1 1 1 1 1 1 1 1 1 1 1 1 1 1 1 1 1 1 1 2 4 3 2 3 3 4
5 4 4 3 3 3 3 3 2 2 2 2 2 2 2 2 2 2 2 1 1 1 1 1 1 1 1 5 7 4 1 1 2 2 2 1 6 6 8 8 7 4 4
5 4 4 4 3 3 2 3 2 2 2 2 2 2 2 2 2 2 2 2 2 1 2 2 1 2 1 7 8 9 2 2 2 2 2 2 3 6 4 9 11 13 14
5 4 4 3 3 3 2 2 2 2 2 2 2 2 2 2 2 2 2 2 2 2 2 2 2 2 1 8 9 10 4 2 2 2 2 4 4 6 8 12 15 15 15
4 4 3 3 3 3 2 2 2 2 3 3 2 2 2 2 2 2 2 2 2 2 2 2 2 2 2 9 10 10 5 4 10 11 11 10 11 11 12 14 15 16 17
3 3 3 3 5 5 4 3 5 5 4 3 2 3 2 2 2 2 2 2 2 2 2 3 9 12 8 12 11 10 10 13 15 15 14 14 14 14 14 14 16 17 18
3 3 3 5 6 7 5 7 7 8 6 5 5 6 7 6 4 2 2 2 3 9 12 14 15 14 14 14 13 12 13 15 16 16 16 16 15 14 14 15 16 17 17
5 4 4 6 8 9 8 9 10 9 9 9 10 11 11 11 10 8 9 10 11 13 15 16 16 16 16 15 14 14 15 15 16 17 17 16 15 16 16 16 16 16 16
6 6 7 8 9 10 11 11 11 9 11 12 13 14 14 15 15 14 13 14 14 15 16 17 18 18 17 16 16 16 16 16 17 17 16 16 17 17 17 16 16 16 16
8 8 8 10 11 11 11 11 11 10 11 13 14 14 16 17 17 16 16 16 16 16 17 18 18 19 18 18 17 17 18 17 18 18 19 18 18 18 17 18 18 17 18
11 11 12 12 13 12 12 12 12 10 11 12 13 15 16 16 17 17 17 17 16 16 18 18 18 18 18 17 16 17 18 18 18 17 18 18 18 18 18 18 18 18 18
12 13 14 14 14 14 14 14 12 12 12 13 14 14 16 17 17 17 18 16 16 16 16 16 17 17 16 16 16 16 15 15 15 16 17 17 18 18 18 18 18 18 19

GFSMW_con_lsi_075.txt.gz
Lid_Strength_Index
4 4 3 3 3 2 2 2 2 1 1 2 2 3 3 3 2 2 2 2 2 1 1 1 1 1 2 2 3 4 4 5 4 6 6 6 5 5 5 5 3 2 2
5 5 4 4 3 3 2 2 2 1 1 1 2 2 3 3 2 2 2 2 2 2 2 2 2 1 2 2 3 3 4 4 4 6 6 7 6 6 5 5 5 5 3
6 5 4 4 4 3 2 2 2 2 1 1 1 2 2 3 4 3 3 3 2 2 2 2 2 2 2 2 3 3 4 4 4 4 5 6 8 7 5 5 5 5 4
5 5 5 4 4 3 2 2 2 1 1 1 2 2 3 4 4 3 3 3 2 2 2 2 2 2 2 2 2 2 3 3 4 3 2 3 4 6 6 3 4 4 4
5 5 5 4 4 3 2 2 1 2 1 1 2 2 3 2 2 3 3 2 2 2 2 2 2 3 3 2 2 2 2 3 3 4 4 3 3 3 4 5 4 3 3
5 5 4 4 4 3 2 2 2 2 1 1 2 2 2 3 3 3 3 2 2 2 2 1 2 3 3 2 2 2 2 2 3 2 3 4 4 4 5 5 5 5 4
5 5 5 5 4 3 3 2 2 2 2 1 2 2 2 3 3 4 4 3 2 3 2 2 2 2 2 2 1 1 2 2 2 2 2 2 2 2 2 3 4 4 4
5 5 5 5 4 3 3 3 2 2 2 2 2 2 2 2 3 4 4 4 2 2 1 2 1 1 1 1 2 2 2 2 2 2 2 2 2 2 2 2 4 6 5
5 5 5 5 4 3 3 3 3 2 2 2 2 2 2 2 2 3 3 3 2 2 2 1 1 1 1 2 2 2 2 2 2 2 2 2 2 2 2 2 2 3 6
5 5 5 5 4 3 3 3 2 2 2 2 1 1 1 2 1 1 3 3 2 2 1 1 1 1 1 1 2 2 2 2 2 2 2 2 2 2 2 1 2 2 3
5 5 4 4 4 3 3 3 2 2 2 2 2 2 1 1 1 2 2 2 2 2 2 1 1 1 1 1 1 2 2 2 2 2 2 2 2 2 2 1 1 2 2
6 5 4 4 5 4 3 3 3 2 2 2 2 2 1 1 1 2 2 2 1 1 1 2 1 1 1 1 2 2 1 2 2 2 2 2 1 2 1 1 2 2 2
6 5 4 4 4 4 4 3 3 3 2 2 3 3 2 2 2 1 1 2 2 1 1 1 2 2 1 1 2 2 2 1 1 1 2 2 2 2 1 2 2 2 2
6 6 5 5 4 4 4 4 4 3 2 2 2 3 3 2 2 1 1 1 1 1 1 1 2 2 2 1 1 1 2 2 2 2 2 2 2 2 2 2 2 2 2
5 5 5 6 5 4 4 4 3 3 3 3 2 2 2 2 2 2 1 1 1 1 1 1 1 1 1 1 1 1 1 1 2 1 1 1 2 4 3 2 2 2 2
6 5 5 4 4 4 4 4 4 3 3 3 3 3 2 2 2 2 2 1 1 1 1 1 2 2 1 5 7 4 1 1 2 2 2 1 5 5 7 7 7 3 2
5 5 5 4 5 5 4 4 3 3 3 3 3 3 3 3 2 2 2 2 2 2 2 2 2 2 2 7 8 8 2 2 2 2 2 2 2 6 3 9 12 13 13
5 5 5 6 7 6 4 3 4 5 5 5 4 3 3 3 3 3 2 2 2 2 2 2 2 2 2 8 9 10 5 3 2 2 2 3 3 4 6 11 14 15 15
5 6 7 8 9 9 6 6 7 6 6 6 7 8 7 6 3 3 3 2 2 2 2 2 2 3 2 9 9 9 4 4 4 10 11 8 7 9 10 13 15 16 16
6 8 9 10 11 11 8 8 9 9 9 8 8 9 10 9 9 7 6 3 3 3 2 3 8 12 7 13 12 11 6 9 14 15 14 14 13 13 13 14 15 17 18
9 8 9 11 11 11 10 10 11 11 10 10 10 10 11 11 12 10 10 10 7 7 10 12 14 15 14 14 13 12 11 12 15 16 16 15 14 14 14 15 16 17 17
10 9 11 11 11 11 11 11 12 10 10 11 12 13 13 13 13 13 13 13 13 13 14 16 17 17 16 16 15 15 15 15 16 17 16 16 15 16 16 16 16 17 17
12 11 12 12 12 12 12 13 12 11 11 12 13 14 14 15 14 15 15 15 15 15 17 17 18 17 17 17 17 17 17 16 17 17 16 16 16 17 17 17 17 17 17
14 13 13 14 15 14 14 13 12 11 11 12 13 14 15 15 15 15 15 16 16 17 17 18 19 18 18 18 18 19 18 19 19 18 18 18 18 18 19 19 18 18 18
15 14 13 14 14 14 14 13 13 12 12 13 13 14 15 15 15 15 15 16 16 15 17 18 17 18 19 18 17 17 19 18 18 18 18 19 19 19 20 19 19 19 19
14 14 14 14 13 14 13 13 12 13 13 14 14 15 15 15 15 15 15 13 14 14 14 15 15 16 15 14 15 15 15 16 17 18 20 20 20 20 20 20 21 20 20

GFSMW_con_lsi_078.txt.gz
Lid_Strength_Index
5 4 3 3 3 4 4 3 2 1 1 2 2 2 3 2 2 1 1 1 1 2 2 3 2 2 3 3 3 4 5 6 6 6 7 6 5 4 4 4 3 4 3
5 4 4 3 3 3 4 2 2 1 2 1 2 2 3 2 2 2 2 1 2 2 2 2 2 2 2 3 4 4 5 5 5 6 7 9 7 6 6 5 4 4 3
6 5 5 4 4 4 3 2 2 2 2 2 2 2 3 3 3 3 2 2 2 2 2 2 2 2 2 3 4 4 4 5 5 5 6 8 9 7 6 6 6 5 4
5 5 5 4 4 4 2 2 2 1 2 2 2 2 3 4 3 3 2 3 2 2 2 2 2 2 2 3 3 3 4 4 5 5 3 4 4 7 7 5 5 6 5
5 5 5 5 4 3 3 2 2 1 1 1 2 2 2 3 3 3 3 3 3 2 2 2 2 2 2 2 2 2 3 4 4 5 4 4 4 5 6 8 5 5 4
5 5 4 5 5 3 2 2 2 2 1 1 2 2 2 3 3 3 3 3 3 2 2 2 2 2 2 3 2 1 2 3 3 4 4 4 5 5 5 6 6 5 4
6 5 5 6 5 4 3 2 2 2 2 1 1 2 2 3 3 3 3 3 3 2 2 2 2 2 2 2 2 2 3 3 4 3 3 3 3 3 4 5 5 5 4
5 6 5 5 5 4 3 3 3 3 2 2 2 2 2 2 3 3 3 3 2 2 2 2 2 2 2 2 2 2 2 2 3 3 3 3 2 2 2 3 4 5 5
6 5 5 5 5 4 3 3 3 2 2 2 2 2 2 2 3 3 3 4 3 2 2 2 2 1 1 1 1 2 2 2 3 2 2 2 2 2 2 2 3 4 6
6 5 5 5 4 4 3 2 2 2 2 2 1 2 2 2 2 3 4 4 3 2 1 1 2 1 1 1 1 2 2 2 2 2 3 2 2 2 2 2 2 2 3
6 5 5 5 4 4 3 3 3 2 2 2 2 2 1 2 2 2 3 4 3 2 2 1 1 1 1 1 1 1 1 2 2 2 3 3 2 2 2 2 2 2 3
5 5 5 4 4 4 4 3 3 3 2 2 2 2 1 1 1 2 2 2 3 3 2 2 1 1 1 1 1 1 2 2 2 2 2 3 2 3 3 2 3 3 3
6 5 5 5 4 4 4 4 4 3 2 2 2 2 2 2 2 1 1 2 2 3 3 2 2 2 2 1 1 2 2 2 2 2 2 2 2 2 2 2 2 2 2
6 6 6 6 5 5 4 4 4 3 3 3 2 2 2 2 2 1 1 1 1 2 2 2 2 2 2 2 2 2 2 2 2 3 2 2 2 2 3 3 2 2 2
7 6 7 6 5 5 4 4 4 4 3 3 4 4 3 2 2 2 1 1 1 1 1 1 1 2 2 2 2 2 2 2 2 2 2 2 2 4 3 2 2 2 3
7 8 8 8 8 6 5 5 4 4 3 4 3 3 3 3 3 3 3 2 1 1 1 2 2 2 2 6 7 4 2 2 3 3 2 2 5 5 7 7 6 3 3
7 8 9 9 8 8 7 7 6 5 5 4 3 3 3 3 3 3 3 3 3 2 2 2 2 2 2 7 8 9 3 3 3 3 3 3 2 5 2 6 8 9 11
10 10 10 10 10 8 8 8 8 7 7 7 8 8 8 6 5 3 3 3 3 3 3 3 3 2 2 8 8 9 4 3 2 2 2 3 3 3 4 4 8 11 14
11 11 11 11 11 10 9 10 10 9 9 9 9 10 9 9 8 7 7 4 2 3 3 2 3 3 3 10 10 9 4 3 3 3 2 3 3 5 8 6 12 16 16
12 12 12 12 13 12 10 11 11 11 12 11 11 11 10 10 11 9 10 10 8 5 3 9 13 15 13 15 14 13 6 5 5 12 14 14 13 12 12 7 13 16 17
12 12 13 14 14 13 12 13 13 13 12 12 13 14 14 13 13 11 11 11 10 12 14 15 16 16 16 16 15 15 14 11 15 16 17 16 15 15 15 15 16 17 17
13 13 14 14 14 14 13 13 14 12 12 13 14 15 15 14 15 14 13 12 12 13 15 16 17 18 18 16 16 16 16 16 17 17 17 17 16 16 16 17 16 16 17
15 14 14 15 15 15 15 15 14 12 12 14 15 15 15 15 15 15 15 14 14 15 16 16 17 18 18 18 18 17 17 17 18 17 17 16 17 17 18 17 17 17 18
16 15 15 16 16 15 15 15 14 13 14 15 15 15 15 15 15 15 15 15 15 15 15 16 17 18 18 18 17 17 18 17 17 18 18 18 18 18 19 19 19 20 20
16 16 16 16 17 16 15 15 15 13 14 14 14 14 14 15 15 15 14 14 14 13 14 15 15 16 17 16 15 16 17 17 16 17 18 18 19 20 20 21 20 20 20
17 17 17 17 17 16 16 15 13 13 13 14 14 14 14 15 15 15 16 14 13 13 13 13 13 14 13 13 13 14 14 15 16 18 19 20 20 21 21 21 22 22 21

GFSMW_con_lsi_081.txt.gz
Lid_Strength_Index
5 4 3 3 4 5 5 3 3 2 2 1 2 2 2 1 1 1 1 2 2 3 4 3 4 4 5 4 4 4 5 6 5 6 7 6 5 5 5 4 4 4 3
6 5 4 3 3 4 4 4 3 2 2 1 1 2 2 2 1 1 1 1 2 3 4 3 4 4 4 4 4 5 6 6 6 6 7 8 7 6 5 4 4 4 4
6 6 5 4 4 4 4 3 3 2 2 1 2 2 2 2 3 2 2 2 2 2 4 3 3 3 3 3 4 4 5 6 6 5 7 9 9 7 7 6 4 4 5
5 5 5 4 4 4 4 3 3 2 1 1 2 2 3 4 3 3 3 2 2 2 2 3 2 3 3 3 4 4 4 4 6 6 5 5 6 8 8 5 5 5 5
6 6 5 4 4 4 4 3 3 2 1 2 1 2 3 3 3 3 3 3 3 2 2 2 2 2 2 3 3 4 4 4 5 6 5 5 5 5 6 7 6 6 6
5 5 4 4 4 4 4 3 2 2 2 2 2 2 2 3 3 4 4 4 3 3 2 2 2 2 2 3 3 2 3 4 4 5 5 5 5 5 6 6 7 7 6
6 6 5 5 5 5 4 3 3 3 2 2 2 2 2 3 3 3 4 4 4 3 3 3 3 3 2 2 2 2 3 3 4 4 4 4 4 4 5 5 6 6 5
6 6 5 5 5 4 4 3 3 3 2 2 2 2 2 2 3 3 3 3 3 3 2 3 2 2 2 2 2 3 2 3 3 3 4 3 4 3 4 4 5 6 6
6 6 5 5 5 5 4 3 3 3 2 2 2 2 2 2 3 3 2 2 2 2 2 2 2 2 2 2 2 2 2 2 2 3 3 3 3 3 3 3 3 4 6
6 6 5 5 5 5 4 3 2 3 2 2 2 2 2 2 2 3 3 3 3 3 3 2 2 2 2 2 1 1 2 2 2 2 3 3 3 3 3 2 3 3 4
6 6 5 5 5 5 4 3 3 3 2 2 2 2 1 2 2 3 4 4 4 3 3 2 2 2 2 2 2 1 2 2 2 3 3 3 2 3 3 2 3 3 3
6 5 5 5 5 5 4 3 3 3 2 2 2 2 1 1 2 2 4 4 4 3 3 2 1 1 2 1 1 2 1 2 2 2 2 2 2 2 2 3 3 3 3
6 6 5 5 5 5 5 4 3 3 2 2 2 2 2 2 2 1 2 2 4 4 3 3 2 2 2 2 2 1 1 2 2 1 2 2 2 3 2 3 3 3 3
6 6 6 5 5 4 4 4 4 4 3 3 3 3 3 2 2 1 1 1 2 3 3 3 3 3 2 1 2 2 2 2 2 2 2 2 2 2 2 2 2 2 2
8 8 7 6 5 5 5 4 4 4 4 4 4 4 4 2 2 2 2 1 1 1 2 3 3 3 3 3 2 2 2 3 3 3 3 2 2 4 4 2 3 3 3
10 10 9 8 8 7 7 7 6 6 3 3 4 3 3 3 3 3 3 3 3 2 2 1 1 2 2 6 8 6 3 3 3 3 3 3 6 6 8 8 7 4 3
11 11 11 10 10 10 9 10 9 8 7 7 7 6 4 3 4 4 4 3 3 3 3 3 3 3 2 7 7 8 3 3 3 3 3 3 3 6 4 7 9 9 9
12 12 12 12 11 11 10 10 10 9 9 9 10 10 8 8 7 5 3 3 3 3 3 3 3 3 3 11 10 10 5 3 3 3 3 3 3 3 3 4 4 5 5
13 13 13 12 12 11 11 11 11 11 11 12 12 12 11 11 10 9 9 8 7 5 3 2 3 5 10 14 14 13 6 4 4 3 3 7 5 7 9 6 6 11 16
14 14 14 14 13 12 12 12 13 14 14 14 14 13 13 13 13 12 12 11 9 10 11 14 15 15 15 15 14 13 11 7 7 13 15 15 15 15 14 12 8 14 17
14 14 15 15 15 13 13 13 13 15 15 15 15 15 15 14 14 14 13 12 12 13 15 16 17 17 16 16 15 14 14 15 15 16 17 16 15 15 15 15 16 16 17
15 15 16 16 15 15 14 14 14 14 15 15 16 16 16 15 15 15 14 14 14 14 15 16 16 16 17 16 16 15 15 15 16 17 17 16 16 17 16 16 16 16 18
16 16 16 16 16 15 15 16 14 14 15 15 16 16 16 15 15 15 15 15 14 15 15 16 16 16 16 16 16 15 16 16 17 17 17 17 17 17 18 17 18 18 18
17 16 17 17 17 16 16 16 15 14 15 16 16 16 16 16 16 15 15 15 15 15 15 15 15 15 15 16 15 15 15 16 17 18 18 18 18 18 18 19 19 19 19
18 17 17 17 18 17 17 16 16 15 16 16 16 17 17 17 17 17 15 15 14 13 14 14 14 15 15 14 13 14 15 16 16 16 17 18 19 19 19 19 20 20 20
18 19 18 18 18 17 17 17 17 16 16 17 17 17 17 17 16 17 17 14 14 14 13 13 14 14 14 13 14 14 14 15 16 18 19 19 19 20 21 21 21 20 21

GFSMW_con_lsi_087.txt.gz
Lid_Strength_Index
4 3 3 2 2 2 2 2 2 2 1 1 2 2 2 1 1 0 0 1 0 -0 0 1 2 2 2 2 1 1 1 1 1 2 2 2 2 1 1 1 1 1 1
4 4 3 3 2 2 2 2 2 1 1 1 1 1 1 1 1 1 -0 0 1 0 1 2 2 2 1 2 2 1 1 1 1 2 3 5 4 2 2 2 2 1 1
4 4 4 3 3 3 2 2 2 2 1 1 1 1 1 1 1 1 1 1 1 1 2 2 2 1 2 1 1 1 1 3 2 2 3 5 5 4 2 2 2 1 1
4 4 4 4 3 3 2 2 2 1 1 1 1 2 2 3 2 1 2 3 2 2 2 2 2 3 2 1 1 2 2 2 3 2 2 2 2 4 5 3 2 2 2
4 4 4 3 3 2 2 3 2 2 2 1 1 2 2 2 1 1 3 3 3 3 3 3 3 4 2 2 2 3 2 1 2 3 3 3 3 2 3 5 4 2 2
4 4 4 3 3 2 3 3 3 2 3 1 1 1 2 2 2 2 3 4 4 3 4 4 4 4 2 2 2 2 2 2 2 2 2 3 4 4 3 4 4 3 2
5 5 5 4 4 3 3 3 4 3 2 1 1 1 1 1 2 3 2 3 4 4 3 3 4 3 2 3 3 2 3 3 3 3 3 2 2 2 2 3 3 3 2
5 5 4 4 4 3 3 4 4 3 2 2 1 1 1 1 2 2 2 3 3 3 3 4 3 3 3 3 3 3 2 3 2 2 2 2 2 2 2 2 3 4 3
5 5 4 4 4 3 3 4 4 3 2 2 2 2 1 1 1 1 2 2 2 3 3 3 4 4 4 3 3 3 3 3 2 2 2 2 2 1 2 1 1 2 5
6 4 4 4 3 3 3 4 3 4 2 2 2 2 2 1 1 1 2 2 2 2 2 2 3 3 3 4 3 3 2 2 2 2 3 3 2 2 2 1 1 1 2
6 5 4 4 3 3 4 4 4 4 2 3 1 1 2 2 1 2 1 2 2 2 2 2 2 2 3 3 4 4 3 2 2 2 2 2 2 2 2 2 2 2 2
5 5 4 4 4 4 4 4 4 3 2 2 1 2 1 1 2 2 2 1 1 1 1 1 2 2 2 2 2 3 3 2 2 1 2 2 2 2 2 2 2 2 2
6 5 5 5 4 4 4 4 4 2 2 2 1 2 2 1 2 2 2 2 2 1 1 0 1 1 2 2 2 2 2 2 2 2 2 2 1 2 1 1 1 1 1
8 6 5 5 5 4 4 4 3 2 2 2 2 2 2 1 1 1 2 2 2 1 1 0 0 0 0 0 1 1 1 1 1 1 1 1 1 1 1 1 1 2 2
11 10 9 7 5 5 5 4 2 2 2 2 2 2 1 1 1 1 1 0 1 2 1 1 1 0 0 0 1 1 1 1 1 1 1 0 1 4 2 1 1 1 2
12 12 11 10 10 9 8 8 5 2 2 2 3 2 1 1 1 1 1 1 1 1 1 1 1 1 2 7 7 4 2 1 1 1 1 0 4 5 8 8 7 3 2
14 14 13 12 12 12 11 10 10 9 9 9 9 8 5 5 5 3 2 2 1 1 2 2 2 2 5 12 11 10 2 1 2 2 2 2 2 5 2 6 9 9 10
15 15 14 14 14 13 13 13 12 12 12 12 12 11 10 10 9 9 8 7 7 9 8 9 7 11 13 14 14 14 7 5 3 6 10 9 8 11 11 9 6 8 15
16 16 15 14 14 15 15 14 14 14 15 15 14 13 12 12 12 12 11 10 11 13 14 14 14 14 15 14 14 12 8 8 12 14 14 14 14 14 13 11 11 15 16
16 16 16 16 15 14 14 16 17 16 16 16 15 14 14 13 13 13 13 13 14 15 15 16 16 15 16 15 14 13 10 13 15 16 15 15 15 15 14 13 12 15 16
16 16 16 17 17 15 15 16 16 17 16 15 15 15 14 15 14 14 14 14 14 15 16 17 17 16 16 16 15 15 14 15 17 17 17 17 16 16 16 16 16 16 17
17 17 18 18 17 17 16 17 18 16 16 16 16 16 16 15 15 15 14 14 15 16 16 16 17 16 16 16 15 15 15 15 16 16 16 16 16 16 16 16 16 15 16
17 17 18 19 18 18 18 17 17 17 17 17 17 17 17 16 16 16 15 15 15 15 16 16 16 16 15 15 16 16 16 16 16 16 16 16 16 16 15 15 15 15 14
19 18 18 19 20 19 19 18 17 17 17 18 18 17 17 17 16 16 16 16 16 16 16 16 16 16 15 15 15 16 16 16 16 16 16 16 16 16 16 15 15 15 15
19 19 19 19 19 18 19 18 18 17 18 18 18 18 18 17 17 17 17 17 16 16 17 17 17 17 17 16 16 15 15 15 16 15 14 15 15 15 16 16 16 16 16
19 19 20 20 20 19 19 19 18 17 17 18 18 18 18 18 18 18 19 17 17 17 16 16 16 16 16 15 15 15 16 16 16 15 16 17 17 17 17 17 18 18 18

GFSMW_con_lsi_090.txt.gz
Lid_Strength_Index
2 2 1 1 1 0 1 1 1 1 1 1 2 1 2 1 1 0 -0 0 -0 -0 -0 0 1 1 2 2 0 0 1 1 -0 1 2 1 1 1 0 0 -0 -1 -0
4 2 2 1 1 1 1 1 1 1 1 1 1 1 1 1 0 0 0 -0 0 -0 0 0 1 1 2 2 0 0 1 1 0 2 2 4 3 2 1 1 0 -0 0
4 3 2 1 1 2 1 1 1 1 1 0 0 1 1 1 1 1 1 0 -0 -0 0 1 1 1 2 2 1 0 1 2 1 0 2 4 5 3 1 1 1 1 1
3 3 3 2 2 2 1 1 1 1 1 0 1 1 2 3 2 1 1 0 1 1 1 1 1 1 1 1 0 -0 0 1 2 1 0 0 1 4 5 2 1 1 1
3 3 3 2 1 1 1 1 1 1 1 1 1 1 2 1 1 1 1 1 1 1 2 2 1 2 2 1 -0 0 0 0 1 1 1 1 1 1 3 4 3 1 1
4 3 2 2 2 1 2 2 1 1 1 1 1 1 1 2 2 2 2 2 3 2 2 2 2 2 2 1 1 0 0 0 0 1 1 2 2 2 3 4 3 3 2
4 4 3 3 3 3 3 2 2 2 1 1 1 1 1 1 1 2 2 3 4 4 4 3 3 3 1 1 0 -0 0 0 1 1 1 1 1 1 2 3 4 3 2
4 4 3 3 3 3 3 3 2 2 1 1 1 1 1 1 1 1 2 3 4 4 4 4 3 3 2 1 0 0 1 1 1 1 1 1 1 1 1 2 3 4 4
4 4 3 3 3 3 3 3 2 2 1 1 1 1 1 1 1 1 1 2 3 3 3 3 3 3 2 2 2 2 3 2 1 1 1 1 1 1 1 1 2 3 5
5 4 3 3 3 2 3 2 2 2 1 1 1 1 1 1 1 1 1 2 3 3 4 4 4 3 4 4 3 3 3 3 3 2 1 2 1 1 1 1 1 1 2
5 5 4 3 3 3 3 3 2 2 2 2 1 1 1 1 1 1 1 2 2 3 4 4 4 4 5 4 5 5 4 3 3 2 2 2 1 2 1 0 0 2 1
6 5 4 4 4 3 3 3 3 3 2 1 1 1 1 1 1 1 1 1 1 1 2 3 3 3 4 4 4 5 5 3 3 2 2 2 1 1 1 2 2 2 2
8 7 5 4 4 4 3 3 3 3 1 2 2 2 1 1 1 1 1 0 1 1 2 2 2 2 2 3 4 4 4 4 2 2 1 1 1 1 1 2 2 1 1
9 9 9 6 4 4 3 4 3 2 2 2 2 2 2 1 1 1 1 0 0 1 1 0 1 1 2 2 2 3 2 3 2 1 1 1 1 1 1 1 1 1 2
11 12 12 10 9 4 4 4 2 2 2 2 2 2 1 1 1 1 1 1 1 1 0 1 1 1 1 1 1 1 1 2 1 0 0 0 1 4 2 1 1 1 2
13 13 13 12 11 11 8 7 4 2 2 2 2 2 1 1 1 1 1 1 1 1 1 1 1 1 1 12 11 4 1 1 1 1 1 0 4 4 8 8 7 4 2
14 15 14 14 13 13 11 10 9 8 8 7 7 7 6 5 5 2 1 1 1 1 1 1 1 7 9 13 12 12 2 1 1 1 1 2 2 5 2 7 9 9 13
16 15 16 15 15 14 14 13 12 12 11 11 12 11 10 9 8 7 7 8 9 9 9 10 11 12 13 13 13 13 6 3 11 12 11 10 10 12 12 9 11 14 14
15 16 16 16 15 15 15 15 15 15 15 15 14 13 12 12 12 12 12 12 13 14 14 14 14 14 14 14 14 11 9 13 14 15 15 14 14 15 14 11 14 16 16
16 17 17 17 16 15 15 16 16 16 16 16 15 14 14 14 14 14 15 15 15 16 16 17 16 16 16 16 15 12 13 16 17 17 16 16 16 15 14 11 14 16 16
17 17 17 18 18 16 16 17 16 17 16 16 15 15 14 14 14 14 14 15 15 16 16 17 16 16 16 15 15 15 15 17 17 18 18 17 16 16 16 16 16 17 17
17 17 19 18 18 17 17 18 18 17 17 16 16 15 15 14 14 14 14 14 15 16 16 16 16 16 16 16 16 16 15 15 15 16 16 15 15 15 15 15 15 15 14
17 17 17 19 19 18 18 18 18 16 16 17 17 16 15 15 15 14 14 15 15 15 15 15 15 15 15 15 17 16 16 16 15 15 16 16 16 16 16 16 15 13 12
18 17 17 18 19 18 18 18 16 16 17 18 17 17 17 17 16 16 16 16 16 15 16 16 16 16 15 15 15 14 14 15 15 16 15 16 16 16 15 14 13 13 13
18 18 18 19 19 18 19 18 17 17 17 17 18 18 17 18 18 18 17 17 18 17 17 17 16 16 17 17 16 16 15 15 15 14 14 15 15 15 15 15 15 14 14
18 18 18 18 19 18 19 18 17 16 17 18 18 18 18 18 18 19 20 19 18 18 18 17 17 17 17 17 17 18 17 17 16 15 16 16 16 15 15 15 15 15 16

GFSMW_con_lsi_093.txt.gz
Lid_Strength_Index
3 2 1 1 1 0 0 1 1 1 1 1 2 2 2 1 1 0 0 -0 -0 -0 -0 0 0 -0 1 1 1 1 1 2 0 2 2 1 0 0 1 1 1 0 -1
3 3 2 1 1 1 1 1 1 1 1 1 1 1 1 1 1 0 -0 -0 -0 -0 -0 0 0 0 1 1 2 1 2 2 1 2 2 4 3 1 1 1 1 -0 0
3 3 2 2 1 1 1 1 1 1 1 1 1 1 1 1 1 1 1 0 -0 -0 -0 0 0 1 1 2 1 1 2 2 1 1 2 5 5 3 2 1 1 0 1
3 3 2 2 1 1 1 1 1 1 1 0 1 2 2 3 2 1 1 1 0 0 0 0 1 1 1 1 1 1 1 1 2 1 1 1 2 4 5 2 1 1 1
3 3 2 2 1 1 1 1 1 1 1 1 1 1 2 1 1 1 1 1 0 0 0 0 1 1 1 1 2 1 1 1 1 2 2 1 1 1 3 5 3 2 1
3 3 2 2 2 1 1 1 1 1 1 1 1 1 1 1 2 1 2 1 1 1 1 1 1 1 2 1 1 1 1 1 1 1 1 2 3 3 3 3 3 3 2
4 3 3 2 2 2 2 2 2 2 1 1 1 1 1 1 1 2 2 2 2 1 1 2 2 2 2 1 1 1 0 0 1 1 1 1 1 1 2 3 3 3 2
4 4 3 3 2 2 2 2 2 2 1 1 1 1 1 1 1 1 1 1 2 2 2 2 2 2 2 1 1 1 0 0 1 1 1 1 1 1 1 3 3 4 4
4 4 3 3 2 3 3 3 2 2 2 1 1 1 1 1 1 1 1 2 2 3 3 3 2 2 2 2 1 1 2 1 1 1 0 1 1 0 0 1 2 3 5
5 5 4 3 2 3 3 2 2 2 2 1 1 1 1 1 1 1 1 2 2 3 4 3 3 3 2 2 2 2 1 1 1 1 1 1 1 1 0 1 1 1 3
5 5 4 3 2 2 3 3 2 2 2 1 1 1 1 1 1 1 1 2 2 3 4 3 3 3 3 2 2 1 2 2 2 3 3 2 2 1 1 1 1 1 1
6 8 7 4 4 3 3 3 2 2 2 1 2 2 1 1 1 1 1 2 2 3 3 4 4 4 4 4 4 5 4 4 4 3 3 3 2 2 1 1 1 1 1
7 9 9 9 4 4 3 3 3 3 2 2 2 2 1 2 2 1 1 1 2 2 3 4 4 4 5 5 4 5 5 4 4 4 2 2 1 1 1 1 1 1 2
9 10 11 10 9 5 3 3 3 2 2 2 2 2 1 2 1 1 1 1 1 2 1 2 2 3 3 3 4 4 4 4 4 3 2 1 1 1 1 1 1 2 2
11 12 13 12 11 10 8 3 3 3 2 2 2 2 1 1 1 1 1 1 1 1 1 1 1 1 1 2 3 3 3 4 4 3 1 1 1 4 3 1 1 1 2
11 13 13 14 13 12 11 10 7 4 2 2 2 2 1 1 1 1 1 1 1 1 1 1 1 1 8 13 12 5 2 2 2 2 2 1 5 5 7 7 7 6 2
12 14 14 14 14 14 13 12 10 8 8 8 7 6 4 5 4 2 3 3 2 1 3 5 8 10 11 13 12 12 3 2 4 5 6 3 7 9 6 8 12 14 14
14 15 16 15 15 14 15 14 14 12 11 11 10 9 8 8 8 8 9 10 11 10 10 11 11 11 13 13 13 12 5 10 12 12 12 11 12 13 12 9 13 15 15
15 15 15 16 16 15 16 15 15 14 14 14 13 12 12 11 11 12 12 12 13 14 14 14 14 14 14 13 12 10 11 13 15 15 15 15 15 14 13 11 15 16 17
16 16 16 16 16 16 16 17 17 16 16 15 15 14 14 14 14 15 15 14 14 15 16 16 16 15 16 14 14 13 14 16 17 16 16 16 15 15 13 14 15 17 17
16 17 18 18 17 17 16 17 18 17 16 15 15 15 15 15 15 16 16 16 17 17 18 18 18 18 17 16 15 15 16 17 18 18 18 17 17 16 15 16 16 17 16
16 17 18 18 18 17 17 17 18 17 17 16 16 16 16 14 14 14 16 16 16 16 17 17 17 17 17 16 16 15 15 15 17 17 17 16 16 16 15 15 15 15 14
16 16 17 18 18 17 16 19 17 17 17 18 18 17 16 16 17 16 16 16 15 15 16 16 16 16 15 16 17 16 16 16 16 16 16 16 16 15 16 15 15 14 14
17 16 17 18 18 17 18 17 16 16 17 17 18 19 19 19 18 18 18 18 17 17 16 16 16 17 17 16 15 15 15 16 15 15 15 15 16 15 15 15 15 15 15
17 16 17 17 18 17 17 17 15 16 17 17 18 18 19 20 20 20 19 19 19 18 18 18 18 18 19 18 17 16 16 15 15 14 15 15 15 16 16 16 16 16 16
16 17 17 17 17 17 17 17 16 16 17 17 17 16 17 18 19 21 22 19 19 19 19 18 18 18 18 18 17 17 16 16 15 16 17 17 16 17 17 17 17 17 18

GFSMW_con_lsi_096.txt.gz
Lid_Strength_Index
4 3 2 2 2 1 2 1 2 1 1 2 2 2 3 2 1 0 0 0 0 -0 0 0 0 0 1 1 1 1 1 2 1 2 3 3 3 3 2 1 1 1 1
4 4 3 2 2 2 2 2 2 2 1 1 1 1 2 2 1 1 0 0 1 -0 0 0 1 0 1 1 1 1 2 2 1 3 4 6 4 3 1 1 1 1 1
4 3 3 3 2 2 2 2 2 2 1 1 1 1 1 1 2 2 1 1 1 1 0 0 0 0 0 1 1 1 2 3 2 2 4 6 7 5 3 2 3 2 1
4 4 3 3 2 2 2 2 1 1 1 1 2 2 3 3 2 2 2 1 0 0 0 0 0 0 1 1 1 1 2 2 3 2 2 3 4 6 6 3 3 2 3
4 4 3 3 2 2 2 2 1 1 2 1 1 2 2 2 2 1 2 1 1 0 0 0 0 1 1 1 1 1 2 2 3 3 3 4 3 3 5 6 5 3 3
4 4 3 3 2 2 2 2 2 2 2 2 1 2 2 2 2 2 2 2 1 1 0 0 0 1 1 1 1 1 1 1 2 2 3 4 4 4 4 5 5 4 3
5 5 4 3 3 3 2 2 2 2 2 2 2 2 2 2 2 2 2 2 2 2 1 1 1 1 1 1 1 1 1 1 2 2 2 2 4 2 2 3 4 4 4
5 5 5 4 3 3 3 3 2 2 2 2 2 2 2 2 2 2 2 2 2 1 1 1 1 1 1 2 1 1 1 2 2 2 2 2 2 1 2 3 4 6 5
5 6 5 4 3 3 3 3 2 2 2 2 2 2 2 2 2 1 1 1 2 2 1 1 2 1 2 2 1 2 2 2 2 2 1 2 2 1 2 2 3 5 7
5 6 6 6 3 3 3 2 2 3 2 2 2 2 2 1 1 1 1 2 2 2 2 2 1 2 2 2 2 2 2 2 2 1 2 2 2 2 2 2 2 3 5
6 7 9 8 7 3 3 3 2 3 3 2 2 2 2 1 1 1 1 2 2 2 3 3 3 2 2 2 2 2 2 2 2 2 3 2 2 3 3 3 2 3 4
7 8 10 10 10 8 3 3 3 3 2 2 2 2 2 1 2 2 1 2 2 2 3 2 3 4 3 2 3 3 2 2 3 3 3 3 3 3 3 3 3 3 3
8 9 11 11 11 10 7 3 3 3 3 2 3 2 2 2 2 2 1 2 2 3 3 3 4 5 5 5 4 4 4 4 4 4 3 3 3 4 3 3 3 3 3
10 11 12 13 12 11 10 8 4 3 2 2 2 2 2 2 2 1 1 1 2 3 3 3 4 4 5 5 5 5 5 5 4 4 4 4 4 4 3 3 2 3 2
11 12 13 13 13 13 12 10 10 3 2 2 2 2 2 2 1 2 1 1 2 2 2 2 3 4 4 4 5 5 5 5 5 4 4 3 4 6 4 2 2 3 3
12 13 14 14 14 14 13 12 11 9 3 4 3 2 2 2 2 2 2 1 1 1 1 2 2 4 10 13 11 6 4 4 4 5 4 4 6 6 8 9 12 9 4
14 14 14 14 15 15 15 14 12 11 9 8 7 6 5 6 6 6 6 7 6 8 9 9 10 12 12 13 12 9 3 4 5 6 5 6 9 9 7 13 13 13 13
15 15 15 15 15 15 15 15 14 14 13 12 11 9 9 9 9 10 10 11 11 11 12 13 12 13 13 13 12 11 10 12 13 13 12 11 12 13 10 13 15 15 15
15 15 15 15 14 15 16 15 16 15 15 15 14 13 12 12 13 13 13 13 14 14 15 15 14 14 14 13 13 11 13 14 15 15 14 14 14 14 11 14 16 17 17
15 15 15 16 16 16 15 16 17 17 17 16 15 14 14 14 15 15 15 15 15 16 16 16 15 15 15 14 13 13 14 16 16 16 16 15 15 14 14 15 16 17 17
15 15 16 17 17 16 16 17 18 18 17 16 16 16 15 15 15 15 15 15 15 15 16 17 17 16 16 15 15 15 16 17 17 17 17 16 16 15 15 16 16 17 17
16 16 17 17 17 17 16 18 18 17 18 18 17 17 17 16 16 15 15 15 16 16 16 16 17 17 17 16 16 16 16 16 18 18 18 17 16 16 16 16 15 15 15
17 16 17 18 17 17 17 17 17 17 18 18 20 19 18 18 18 18 17 17 16 17 17 18 18 19 17 17 17 17 17 17 17 17 16 16 16 16 17 16 16 16 16
17 16 17 18 18 17 17 16 16 16 17 18 19 20 20 20 19 19 19 20 18 19 19 19 20 20 19 18 16 16 16 17 17 17 17 17 17 16 17 17 16 16 16
16 16 17 17 18 17 17 16 15 15 16 17 18 19 20 21 21 20 20 20 19 19 20 20 20 20 20 19 17 17 17 16 17 17 17 17 17 18 18 19 19 19 19
16 17 17 17 17 17 17 16 15 16 16 17 17 17 17 19 20 21 21 19 19 19 19 19 19 19 18 17 17 17 16 16 17 18 19 19 19 19 20 20 21 21 21

GFSMW_con_lsi_099.txt.gz
Lid_Strength_Index
7 6 5 4 4 4 3 2 2 2 1 2 3 3 2 1 1 1 1 0 0 1 1 1 1 1 1 1 1 1 1 2 1 2 3 3 3 3 2 2 2 1 1
8 7 6 7 4 4 4 2 2 2 2 2 2 2 1 1 1 1 1 0 0 1 1 1 1 1 1 1 1 1 2 2 1 3 3 5 4 4 3 2 1 2 1
8 7 6 7 6 4 4 2 2 2 2 2 2 2 2 2 2 2 2 1 0 1 1 1 1 0 0 1 1 1 2 3 2 2 4 6 7 5 4 4 3 2 2
7 5 5 5 5 5 4 2 2 2 2 2 2 3 3 4 2 2 1 1 1 1 0 0 1 0 1 1 1 1 1 2 3 2 2 4 4 6 7 4 3 2 2
6 5 5 4 4 5 4 3 2 2 2 2 2 2 3 2 2 2 2 1 1 1 1 1 0 0 1 1 1 1 1 1 2 2 3 4 4 5 6 7 5 3 2
5 5 5 4 3 3 5 3 3 2 2 2 2 2 3 3 3 2 2 2 1 1 1 0 0 0 0 1 1 1 1 1 1 2 3 4 5 5 5 6 6 5 4
6 6 6 6 5 4 5 3 3 3 2 2 2 2 2 2 3 3 3 3 2 2 1 1 1 1 0 1 0 1 1 1 2 2 2 3 3 3 4 5 5 5 5
6 6 8 7 7 4 3 3 3 3 2 2 3 2 2 2 2 3 3 2 2 1 1 1 1 1 0 1 1 1 1 1 2 2 2 2 3 3 3 4 5 6 5
7 7 9 8 9 5 4 4 4 4 3 3 3 3 2 2 3 2 2 3 3 2 1 1 1 1 1 1 1 1 1 1 2 2 2 2 2 2 2 3 3 4 6
9 9 10 10 10 9 5 4 4 4 3 3 2 3 3 2 2 3 4 4 3 2 2 1 1 1 1 1 1 2 1 2 2 2 2 2 2 2 2 3 2 3 5
10 10 12 11 11 10 9 6 3 3 4 3 3 3 3 2 2 3 3 3 3 2 2 2 2 1 1 1 2 2 2 2 2 2 2 2 3 3 3 3 3 4 5
10 11 12 12 12 12 11 10 8 3 3 3 3 3 2 2 3 2 3 2 2 2 2 2 2 2 1 2 2 2 2 3 3 2 3 3 3 3 3 3 4 4 4
11 12 13 14 14 13 12 11 10 9 3 3 3 3 3 2 2 2 2 2 2 2 2 3 3 3 3 2 2 2 2 2 3 2 3 3 3 4 4 4 3 3 4
12 13 14 14 14 14 13 12 12 11 8 3 3 3 2 2 2 2 1 2 2 2 2 2 3 4 4 4 3 3 3 3 3 3 3 3 3 3 3 4 4 4 4
13 13 14 15 15 14 14 12 12 12 10 3 3 3 2 2 2 1 1 2 2 2 2 2 3 4 4 6 4 4 4 4 4 4 4 4 5 7 6 3 4 4 4
14 14 14 14 15 15 14 14 13 13 11 9 5 3 2 2 2 2 2 2 2 2 3 2 3 8 10 14 12 7 5 5 5 5 4 4 7 7 11 12 13 9 4
15 15 15 15 15 15 15 15 14 13 13 13 11 9 7 7 7 7 8 8 9 9 10 11 11 12 12 14 13 11 5 5 5 6 5 5 10 9 11 14 14 14 14
15 16 16 15 15 14 15 14 14 15 14 15 14 12 11 12 11 12 12 13 13 13 13 13 13 13 13 12 12 12 12 14 14 14 13 12 13 12 11 13 15 15 14
15 15 15 15 15 15 14 15 16 15 16 16 15 14 14 14 14 15 14 14 14 15 15 15 15 15 14 13 13 13 14 15 16 15 15 14 13 13 13 14 16 16 15
15 16 16 16 15 14 15 16 17 17 17 16 17 16 14 15 15 15 16 15 15 16 16 16 16 15 15 14 14 14 15 16 16 16 15 14 14 13 13 14 15 17 17
16 16 16 17 16 15 15 16 17 19 18 18 17 17 16 15 15 15 15 15 16 16 16 17 16 16 15 15 14 15 16 16 16 16 16 15 15 14 14 15 16 17 16
17 17 17 17 17 16 16 17 17 17 18 18 19 19 18 17 16 16 17 15 16 17 17 17 18 16 16 15 15 15 15 16 17 17 16 16 15 15 15 16 16 16 16
16 16 17 18 17 16 16 17 17 17 18 19 20 20 19 19 19 18 18 18 17 18 19 19 19 18 17 16 15 15 16 16 17 17 16 16 16 17 17 16 16 17 17
18 17 18 19 19 18 17 17 16 16 16 18 19 20 20 21 20 20 19 19 19 19 19 20 20 19 18 17 17 16 16 16 17 17 18 18 19 19 20 20 19 19 19
17 17 18 18 19 17 17 17 16 16 16 16 16 18 19 21 21 20 20 19 19 19 20 19 19 19 19 17 16 17 17 17 18 18 18 19 20 21 21 22 21 21 21
17 18 18 18 18 18 17 16 16 16 17 17 17 17 17 18 19 20 20 17 18 18 17 17 18 18 17 17 16 16 17 17 18 20 21 22 22 22 22 23 22 22 22

GFSMW_con_lsi_102.txt.gz
Lid_Strength_Index
7 7 7 7 6 6 5 2 2 2 1 2 2 2 2 2 2 2 2 2 2 2 2 2 2 1 1 1 1 1 2 2 1 2 2 2 2 2 2 1 2 2 2
9 8 8 8 7 6 5 2 2 2 2 2 1 2 2 2 2 2 2 1 1 1 2 2 2 1 1 1 1 2 2 2 1 3 3 5 4 4 2 2 2 3 2
9 9 8 8 9 8 6 2 2 2 2 1 1 3 2 3 3 2 1 1 1 1 1 1 1 1 1 1 1 2 2 3 2 2 3 6 7 5 3 3 3 3 2
8 6 5 5 5 6 7 3 2 2 2 1 2 2 3 3 2 2 1 1 1 0 1 1 1 1 0 1 1 1 1 2 3 2 2 3 4 6 7 4 4 3 2
6 6 6 5 4 4 4 2 2 2 2 2 2 2 3 2 3 2 2 2 1 1 1 1 1 1 1 1 1 1 1 1 2 2 3 3 4 4 5 6 6 4 3
7 7 6 6 6 4 3 3 3 2 2 2 2 2 3 3 3 2 2 2 2 1 2 2 1 1 1 1 1 1 1 1 2 1 2 3 5 5 5 6 5 5 4
9 9 9 9 8 7 4 5 3 3 2 2 2 3 3 3 3 3 3 2 2 2 1 1 1 1 1 1 1 1 1 1 1 2 2 2 3 4 4 5 5 6 6
9 10 10 10 9 9 8 3 4 3 2 3 3 3 3 3 3 3 2 2 2 2 1 1 1 1 0 0 0 1 1 1 1 1 1 2 3 3 4 4 5 7 7
11 11 11 11 11 11 9 8 4 5 3 3 3 3 3 3 3 3 2 2 3 3 2 1 1 1 1 1 1 1 1 1 1 1 1 2 3 3 3 3 4 5 7
13 12 11 12 12 12 11 10 9 7 4 3 3 3 3 3 3 3 3 3 3 3 2 2 1 1 1 1 1 1 1 1 1 1 2 2 2 3 3 3 4 4 5
14 13 14 13 13 12 12 11 10 9 7 4 4 4 4 4 4 4 3 4 4 4 3 2 2 1 1 1 1 1 1 2 2 1 2 2 2 3 3 3 3 4 5
15 14 14 14 14 14 13 12 11 11 9 5 4 3 3 3 3 3 3 3 4 3 3 3 2 2 2 1 1 2 2 2 2 2 2 2 2 3 3 3 4 4 4
15 15 14 15 15 14 14 13 12 12 11 9 4 3 3 3 3 3 3 3 3 2 2 2 2 3 3 2 1 1 2 2 2 2 2 2 2 3 3 4 4 4 4
15 15 15 15 15 15 14 14 13 12 11 9 3 3 3 3 3 2 2 2 2 2 2 2 2 3 3 3 2 2 2 2 2 2 2 2 2 3 4 4 4 4 4
16 15 16 15 15 15 15 14 14 13 12 11 10 6 2 2 2 2 2 2 2 2 2 2 3 3 5 8 7 2 2 3 3 2 3 2 4 7 5 3 4 4 4
16 16 16 15 15 15 15 14 14 14 13 13 13 11 8 2 2 2 2 2 4 3 4 4 5 7 9 13 13 7 4 3 3 4 3 5 7 8 9 11 12 8 4
16 16 16 16 15 15 15 15 15 14 14 14 14 14 12 10 9 8 9 10 10 10 11 11 10 11 11 13 12 11 6 9 7 6 5 7 9 9 12 14 14 15 15
17 17 16 16 15 15 15 15 15 15 15 15 15 14 14 14 13 13 13 13 13 14 14 14 14 13 13 13 12 13 12 13 14 13 12 10 11 11 12 14 16 16 16
16 16 16 16 15 15 15 15 17 17 17 16 16 16 15 15 15 16 15 15 15 15 16 15 15 15 15 14 13 13 14 15 16 15 14 13 13 14 13 15 17 17 17
16 17 16 16 16 15 14 16 17 17 18 18 17 16 16 16 16 16 16 16 16 16 15 16 15 15 15 14 14 14 14 16 16 16 16 15 15 15 15 15 16 17 17
17 17 17 17 16 15 15 17 17 18 18 18 18 18 17 17 17 16 15 16 16 16 17 16 16 16 15 15 15 14 16 16 16 16 15 15 15 15 15 15 16 16 16
17 18 18 18 17 16 16 17 17 17 17 18 19 19 19 18 18 17 17 17 17 17 17 17 17 16 16 15 15 15 15 15 16 17 16 15 14 14 15 15 15 16 16
18 17 18 18 17 17 16 17 16 16 17 19 19 19 19 19 19 19 19 19 18 18 18 18 18 17 16 16 16 16 16 16 17 17 17 17 17 17 17 17 17 16 17
18 18 18 19 19 18 17 17 17 16 16 18 19 20 20 20 19 19 19 19 20 19 19 18 18 18 17 17 17 17 17 17 17 18 19 19 19 19 20 20 19 20 20
19 19 19 19 20 19 19 17 17 17 17 17 17 18 19 19 20 19 19 19 18 18 19 19 18 18 19 17 16 17 18 18 18 19 19 20 21 21 21 21 21 20 21
19 19 19 19 19 19 19 18 16 16 17 17 17 17 17 18 19 20 20 17 17 17 17 16 17 17 16 16 17 17 17 18 19 21 22 22 23 23 23 23 23 22 22

GFSMW_con_lsi_105.txt.gz
Lid_Strength_Index
7 7 6 7 7 7 7 5 2 2 1 2 2 2 2 2 2 1 1 1 1 2 2 2 2 2 2 2 2 2 2 2 2 2 2 2 1 1 0 0 1 1 2
8 7 7 8 8 8 7 5 2 2 2 1 1 2 2 2 1 1 1 1 1 2 2 2 2 2 2 2 2 1 2 2 1 3 3 5 4 3 1 1 1 1 2
7 8 8 8 8 8 9 6 2 2 2 1 1 3 3 3 2 2 2 1 2 2 2 2 2 1 1 2 1 1 2 3 2 1 3 6 7 4 3 2 2 2 3
5 5 5 5 5 5 4 6 4 2 2 1 2 2 3 3 2 2 2 1 1 2 2 2 1 1 1 1 1 1 1 2 3 2 1 2 3 5 6 3 3 3 3
6 6 5 6 6 5 4 4 4 2 2 2 2 2 3 2 2 2 2 2 1 2 1 2 2 1 1 1 1 1 1 1 2 2 2 3 3 4 5 6 5 4 3
8 7 7 7 7 7 7 4 3 2 2 2 2 2 3 3 3 2 2 2 2 2 1 1 1 1 2 2 1 1 1 1 1 1 2 3 4 5 5 5 5 5 4
11 10 10 10 9 9 8 6 5 3 2 2 2 2 2 3 3 2 2 2 2 2 2 1 1 1 1 1 1 1 1 1 1 1 2 1 2 2 3 4 5 5 5
12 11 11 10 10 10 10 9 8 8 2 2 2 2 2 3 3 2 2 2 2 2 2 1 1 1 1 1 1 1 1 1 1 1 1 2 2 3 3 4 5 7 6
14 13 12 11 11 11 11 10 10 10 8 2 2 2 3 4 3 3 3 2 3 3 2 1 1 1 1 1 1 1 2 1 1 1 1 1 2 2 3 3 4 5 7
15 14 14 13 12 12 12 11 10 10 10 5 3 3 3 3 3 3 4 4 3 2 3 3 2 1 1 1 1 1 1 1 1 1 1 1 1 3 3 3 4 4 5
15 16 15 14 14 13 13 12 12 11 10 9 6 3 3 3 3 3 4 3 3 3 3 3 2 2 1 1 1 1 1 2 2 1 2 2 1 2 3 3 3 4 5
16 16 15 15 15 15 14 13 12 12 10 9 7 3 3 3 3 4 4 4 4 3 3 3 3 2 2 1 1 2 1 2 2 2 2 2 2 2 3 3 4 4 4
17 16 16 15 16 15 15 14 14 12 11 9 7 2 3 4 4 4 4 4 3 3 4 3 3 3 2 2 2 2 1 2 2 2 2 2 2 3 3 3 4 4 4
17 17 17 16 15 16 15 15 14 13 12 11 11 9 5 3 4 3 3 3 3 4 3 2 2 2 3 3 3 2 2 2 1 1 1 2 2 2 3 4 4 4 4
18 17 17 16 15 16 16 15 14 14 13 12 12 12 9 3 2 3 3 3 3 2 2 2 2 3 4 8 9 7 2 2 2 2 2 2 3 6 4 3 4 4 4
17 17 16 16 16 16 16 16 15 15 14 15 14 13 12 11 10 6 3 4 6 6 6 7 7 8 8 13 12 10 4 3 3 3 3 2 7 7 10 9 9 5 4
18 17 17 16 16 15 16 17 16 16 15 16 15 15 14 14 14 12 11 11 11 11 12 11 11 11 12 13 11 11 8 9 11 8 5 6 9 11 12 14 15 15 15
18 17 16 16 15 15 16 16 16 17 17 17 17 16 15 15 15 15 15 14 14 14 14 14 13 13 14 14 13 13 11 13 14 13 12 9 10 11 12 14 15 16 16
17 17 16 16 15 15 16 16 17 17 17 17 18 17 16 16 16 16 16 16 16 15 15 15 15 15 15 14 13 13 13 15 15 15 14 14 13 14 12 14 16 17 17
17 17 17 17 16 15 15 17 17 18 18 18 17 17 17 17 16 17 17 16 16 16 16 16 16 15 15 14 14 14 14 15 15 15 16 15 15 15 15 15 16 17 18
17 17 17 17 17 16 15 16 17 18 18 18 17 17 17 17 17 17 16 17 16 17 17 17 16 16 15 14 14 14 15 15 15 16 16 16 14 15 15 15 16 17 17
19 19 19 19 18 17 17 17 17 16 17 18 19 18 18 18 17 18 17 17 17 17 17 17 17 17 16 15 15 15 15 16 17 17 17 15 15 15 15 16 16 16 17
19 19 20 19 18 18 17 18 18 16 17 18 19 19 19 18 17 18 18 18 18 18 18 18 18 17 17 17 16 16 16 17 18 17 17 17 17 17 17 17 17 17 18
21 20 20 20 20 19 18 18 17 17 17 18 19 19 20 20 18 18 18 18 18 19 18 18 19 18 18 18 17 17 18 18 18 19 19 19 18 19 19 19 19 19 19
21 20 20 20 20 19 19 19 17 17 18 17 18 18 19 20 20 19 18 19 18 17 18 18 18 19 19 18 17 17 19 20 20 20 21 21 22 22 21 21 21 21 21
20 20 20 20 20 19 19 18 17 16 17 17 17 18 18 19 19 19 19 17 17 16 16 16 17 18 17 17 17 17 18 18 19 21 23 23 23 23 23 23 23 23 23